Regional Weather Roundup
Issued by NWS Glasgow, MT

Home | Current Version | Previous Version | Text Only | Print | Product List | Glossary On
Versions: 1 2 3 4 5 6 7 8 9 10 11 12 13 14 15 16 17 18 19 20 21 22 23 24 25 26 27
000
ASUS45 KGGW 291115
RWRGGW
HOURLY REGIONAL WEATHER ROUNDUP FOR NORTHEAST MONTANA
NATIONAL WEATHER SERVICE GLASGOW MONTANA
500 AM MDT FRI APR 29 2016

NOTE: "FAIR" INDICATES FEW OR NO CLOUDS BELOW 12,000 FEET WITH NO
SIGNIFICANT WEATHER AND/OR OBSTRUCTIONS TO VISISBILITY.

NORTHEAST MONTANA


CITY           SKY/WX    TMP DP  RH WIND       PRES   REMARKS
GLASGOW        CLOUDY    39  34  82 E7        30.11F
PLENTYWOOD       N/A     37  21  52 E6          N/A
WOLF POINT     CLOUDY    38  34  85 E3        30.15F
JORDAN           N/A     39  36  89 E3        30.09F
WINNETT          N/A     35  34  96 E2          N/A
SIDNEY         PTCLDY    39  28  65 NE9       30.15F
GLENDIVE       CLOUDY    39  36  87 N3        30.15F
SCOBEY           N/A     39  18  43 E6        30.12S
OPHEIM           N/A     36  27  69 CALM      30.03S

FORT PECK REPORTS


CITY           SKY/WX    TMP DP  RH WIND       PRES   REMARKS
FORT PECK        N/A     41  35  79 NE8         N/A
THE PINES        N/A     42  36  79 E3          N/A

SOUTHEAST MONTANA


CITY           SKY/WX    TMP DP  RH WIND       PRES   REMARKS
BILLINGS       CLOUDY    35  34  96 N6        30.02F
MILES CITY     CLOUDY    40  34  79 E5        30.09F
BAKER          CLOUDY    38  33  82 CALM      30.12F
LIVINGSTON     CLOUDY    34  29  82 E12       29.98S

CENTRAL MONTANA


CITY           SKY/WX    TMP DP  RH WIND       PRES   REMARKS
HAVRE          CLOUDY    41  36  82 E10       30.04F
LEWISTOWN      CLOUDY    37  31  78 E3        30.02S
GREAT FALLS    CLOUDY    35  33  92 CALM      29.99S
CUT BANK       CLOUDY    35  34  96 E6        30.00F
HELENA         CLOUDY    38  31  76 W5        29.97F
BUTTE          CLOUDY    32  25  75 S3        29.93F
BOZEMAN        CLOUDY    31  26  82 NW5       29.97F

WESTERN MONTANA


CITY           SKY/WX    TMP DP  RH WIND       PRES   REMARKS
MISSOULA       CLOUDY    36  33  89 N3        29.97F
KALISPELL      NOT AVBL

NORTH DAKOTA


CITY           SKY/WX    TMP DP  RH WIND       PRES   REMARKS
WILLISTON      CLOUDY    34  25  69 NE7       30.17F
DICKINSON      CLOUDY    35  27  72 E5        30.12S
MINOT          CLOUDY    36  22  56 N5        30.20S
BISMARCK       CLOUDY    36  32  85 CALM      30.17S

SOUTHERN SASKATCHEWAN


CITY           SKY/WX    TMP DP  RH WIND       PRES   REMARKS
REGINA         CLEAR     34  16  47 SE12      30.20S
MOOSE JAW      PTCLDY    27  16  63 S5        30.19S
ESTEVAN        PTCLDY    30  18  59 E7        30.20S
SWIFT CURRENT  MOCLDY    30  25  80 SE8       30.11R





USA.gov is the U.S. government's official web portal to all federal, state and local government web resources and services.